FW5913 Weather Reports


Display with metric or nautical units.
time (UTC)temp
F
wind
direction
speed
MPH
gust
MPH
rain 1hr
in
rain 24hr
in
rain mn
in
humidity
%
barometer
mb
20260507112321 46 0.0 0.0 0.01 0.20 0.20 97 1014.6
20260507111320 46 0.0 0.0 0.01 0.20 0.19 97 1014.6
20260507110438 46 0.0 0.0 0.01 0.20 0.19 97 1014.5
20260507105316 45 0.0 0.0 0.01 0.20 0.19 97 1014.4
20260507104334 45 0.0 0.0 0.01 0.19 0.19 97 1014.4
20260507103312 45 0.0 0.0 0.01 0.19 0.19 97 1014.3
20260507102311 45 0.0 0.0 0.02 0.19 0.19 97 1014.1
20260507101309 45 0.0 0.0 0.02 0.19 0.19 97 1014.0
20260507100327 45 0.0 0.0 0.03 0.19 0.18 97 1013.9
20260507095306 45 0.0 0.0 0.04 0.19 0.18 97 1013.8
20260507094304 45 0.0 0.0 0.04 0.18 0.18 97 1013.6
20260507093302 46 0.0 0.0 0.04 0.18 0.18 97 1013.5
20260507092300 46 0.0 0.0 0.04 0.18 0.17 97 1013.4
20260507091258 46 0.0 0.0 0.05 0.17 0.16 97 1013.3
20260507090336 46 0.0 0.0 0.05 0.16 0.15 97 1013.2
20260507085254 46 0.0 0.0 0.05 0.15 0.15 97 1013.1
20260507084253 45 0.0 0.0 0.05 0.15 0.14 97 1013.0
20260507083251 46 0.0 0.0 0.06 0.14 0.14 97 1012.9
20260507082250 46 296 4.0 7.0 0.06 0.13 0.13 97 1012.8
20260507081308 46 346 5.0 8.0 0.05 0.12 0.11 97 1012.6
20260507080246 46 345 5.0 8.0 0.04 0.11 0.10 97 1012.5
20260507075244 46 320 5.0 7.0 0.04 0.11 0.10 97 1012.3
20260507074303 46 330 5.0 8.0 0.04 0.10 0.09 97 1012.2
20260507073241 46 316 4.0 5.0 0.03 0.09 0.08 97 1012.1
20260507072300 46 299 3.0 7.0 0.03 0.08 0.07 97 1012.0
20260507071238 46 301 5.0 8.0 0.03 0.07 0.06 96 1011.8
20260507070236 46 301 5.0 8.0 0.02 0.06 0.06 96 1011.7
20260507065234 46 300 3.0 8.0 0.02 0.06 0.06 96 1011.7
20260507064233 46 271 3.0 5.0 0.02 0.06 0.06 97 1011.6
20260507063232 46 305 3.0 5.0 0.01 0.06 0.05 97 1011.4
20260507062228 46 314 3.0 8.0 0.01 0.05 0.04 97 1011.2
20260507061307 46 301 2.0 3.0 0.00 0.06 0.04 97 1011.1
20260507060225 46 303 4.0 6.0 0.00 0.08 0.04 97 1011.0
20260507055224 46 301 3.0 4.0 0.00 0.09 0.04 97 1010.9
20260507054242 45 293 4.0 6.0 0.00 0.10 0.04 97 1010.8
20260507053220 45 293 4.0 6.0 0.00 0.11 0.04 97 1010.7
20260507052259 45 286 5.0 8.0 0.00 0.11 0.04 97 1010.6
20260507051217 45 318 2.0 3.0 0.00 0.12 0.04 98 1010.5
20260507050215 45 305 3.0 4.0 0.00 0.14 0.04 97 1010.5
20260507045213 45 338 4.0 6.0 0.00 0.15 0.04 98 1010.4
20260507044212 45 298 4.0 6.0 0.00 0.16 0.04 97 1010.4
20260507043211 45 289 2.0 4.0 0.00 0.16 0.04 98 1010.3
20260507042209 45 297 5.0 8.0 0.00 0.17 0.04 98 1010.2
20260507040206 45 313 5.0 9.0 0.00 0.18 0.04 98 1010.1
20260507035205 45 321 2.0 4.0 0.00 0.18 0.04 98 1010.0
20260507034204 45 294 4.0 8.0 0.00 0.18 0.04 97 1010.0
20260507033243 45 296 4.0 6.0 0.00 0.18 0.04 98 1010.1
20260507032202 45 274 2.0 4.0 0.00 0.18 0.04 98 1010.1
20260507031301 45 318 4.0 6.0 0.00 0.18 0.04 97 1010.1
20260507030259 45 293 5.0 7.0 0.00 0.18 0.04 97 1009.9
20260507025257 45 299 4.0 9.0 0.00 0.18 0.04 97 1009.8
20260507024255 45 318 2.0 3.0 0.00 0.18 0.04 97 1009.9
20260507023254 46 316 3.0 5.0 0.00 0.18 0.04 97 1009.9
20260507022252 46 308 4.0 6.0 0.00 0.19 0.04 97 1010.0
20260507021311 46 305 4.0 6.0 0.00 0.19 0.04 97 1009.9
20260507020330 46 325 4.0 4.0 0.00 0.19 0.04 97 1009.8
20260507015248 46 292 4.0 5.0 0.00 0.19 0.04 96 1009.7
20260507014246 46 251 2.0 4.0 0.00 0.20 0.04 96 1009.7
20260507013244 46 325 2.0 6.0 0.00 0.23 0.04 96 1009.7
20260507012242 46 336 1.0 3.0 0.00 0.26 0.04 97 1009.7
20260507011401 46 326 3.0 4.0 0.00 0.28 0.04 96 1009.6
20260507010239 46 334 4.0 6.0 0.00 0.31 0.04 97 1009.6
20260507005237 46 329 2.0 4.0 0.01 0.33 0.04 97 1009.5
20260507004256 46 292 3.0 5.0 0.03 0.35 0.04 97 1009.5
20260507003233 46 339 4.0 5.0 0.03 0.37 0.04 96 1009.5
20260507002228 46 289 3.0 6.0 0.03 0.40 0.04 97 1009.5
20260507001223 47 322 3.0 6.0 0.03 0.43 0.04 97 1009.6
20260507000222 47 291 2.0 3.0 0.03 0.45 0.03 97 1009.7
20260506235220 47 344 2.0 3.0 0.02 0.47 0.02 97 1009.6
20260506234218 47 333 3.0 5.0 0.01 0.48 0.01 97 1009.5
20260506233217 47 275 4.0 8.0 0.00 0.50 0.00 97 1009.4
20260506232213 47 322 4.0 7.0 0.00 0.50 0.00 97 1009.4
20260506231211 47 319 2.0 4.0 0.00 0.51 0.00 97 1009.3
20260506230210 47 327 2.0 3.0 0.00 0.53 0.00 97 1009.2
20260506225208 47 285 2.0 4.0 0.00 0.54 0.00 98 1009.2
20260506224207 47 291 2.0 4.0 0.00 0.55 0.00 98 1009.1
20260506223206 47 329 3.0 4.0 0.00 0.57 0.00 98 1009.0
20260506222205 47 285 4.0 5.0 0.00 0.58 0.00 98 1009.0
20260506221203 47 323 4.0 5.0 0.00 0.59 0.00 97 1008.9
20260506220202 47 341 3.0 5.0 0.00 0.61 0.00 97 1009.0
20260506215411 48 328 2.0 3.0 0.00 0.62 0.61 97 1009.0
20260506214429 48 327 3.0 4.0 0.00 0.64 0.61 97 1009.0
20260506213407 48 333 3.0 4.0 0.00 0.66 0.61 97 1009.0
20260506212406 48 292 4.0 7.0 0.00 0.68 0.61 97 1009.0
20260506211405 48 288 4.0 5.0 0.00 0.71 0.61 97 1008.9
20260506210404 48 285 2.0 4.0 0.00 0.74 0.61 97 1008.9
20260506205403 48 330 3.0 6.0 0.00 0.77 0.61 97 1008.8
20260506204402 48 327 3.0 5.0 0.00 0.79 0.61 97 1008.8
20260506203520 48 322 2.0 4.0 0.00 0.81 0.61 97 1008.7
20260506202459 48 322 4.0 6.0 0.00 0.83 0.61 97 1008.7
20260506201457 49 336 3.0 5.0 0.00 0.85 0.61 97 1008.6
20260506200456 49 312 2.0 5.0 0.00 0.87 0.61 97 1008.4
20260506195514 49 332 2.0 4.0 0.00 0.89 0.61 97 1008.4
20260506194453 49 320 3.0 5.0 0.00 0.91 0.61 97 1008.5
20260506193510 49 308 2.0 3.0 0.00 0.93 0.61 96 1008.3
20260506192448 49 337 3.0 6.0 0.00 0.95 0.61 96 1008.2
20260506191447 49 332 4.0 7.0 0.00 0.97 0.61 95 1008.1
20260506190445 50 339 4.0 7.0 0.00 0.97 0.60 95 1007.9
20260506185443 50 357 3.0 6.0 0.00 0.97 0.60 94 1007.8
20260506184441 50 348 4.0 6.0 0.00 0.98 0.60 94 1007.7
20260506183437 50 320 4.0 8.0 0.00 0.98 0.60 94 1007.5
20260506182435 51 290 3.0 6.0 0.00 0.98 0.60 93 1007.3
20260506181434 51 308 2.0 4.0 0.00 0.98 0.60 93 1007.1
20260506180433 51 304 3.0 6.0 0.00 0.98 0.60 93 1007.2
20260506175431 51 307 4.0 6.0 0.00 0.99 0.60 93 1007.1
20260506174429 51 297 4.0 6.0 0.00 0.99 0.60 93 1007.1
20260506173427 51 318 2.0 4.0 0.00 0.99 0.60 93 1007.0
20260506172423 51 332 3.0 6.0 0.00 0.99 0.60 93 1007.0
20260506171441 51 295 4.0 6.0 0.00 0.99 0.60 93 1007.0
20260506170420 52 326 4.0 4.0 0.00 0.99 0.60 92 1006.9
20260506165417 52 291 4.0 8.0 0.00 0.99 0.60 92 1006.8
20260506164415 53 295 4.0 6.0 0.00 0.99 0.60 91 1006.8
20260506163434 53 308 4.0 6.0 0.00 0.99 0.60 90 1006.7
20260506162412 53 307 4.0 6.0 0.00 0.99 0.60 90 1006.6
20260506161410 54 308 3.0 7.0 0.00 0.99 0.60 90 1006.6
20260506160429 54 292 4.0 7.0 0.00 0.99 0.60 89 1006.6
20260506155427 55 306 4.0 5.0 0.00 0.99 0.60 89 1006.7
20260506154407 55 301 4.0 5.0 0.00 0.99 0.60 87 1006.6
20260506153406 55 316 3.0 6.0 0.00 1.01 0.60 86 1006.6
20260506152404 56 316 3.0 6.0 0.00 1.03 0.60 86 1006.6
20260506151402 55 300 3.0 4.0 0.00 1.06 0.60 87 1006.6
20260506150401 55 323 4.0 5.0 0.00 1.06 0.60 87 1006.7
20260506145520 56 320 2.0 4.0 0.00 1.06 0.60 87 1006.6
20260506144459 55 331 3.0 6.0 0.00 1.06 0.60 89 1006.6
20260506143457 56 307 3.0 4.0 0.00 1.06 0.60 86 1006.5
20260506142455 57 301 3.0 6.0 0.00 1.06 0.60 85 1006.5
20260506141453 58 7 3.0 4.0 0.00 1.06 0.60 84 1006.6
20260506140451 57 327 3.0 4.0 0.00 1.06 0.60 85 1006.5
20260506135450 57 304 4.0 5.0 0.00 1.06 0.60 85 1006.6
20260506134449 56 313 3.0 5.0 0.00 1.06 0.60 86 1006.6
20260506133447 56 306 4.0 7.0 0.00 1.06 0.60 87 1006.6
20260506132446 57 328 3.0 4.0 0.00 1.13 0.60 85 1006.7
20260506131443 57 292 3.0 4.0 0.00 1.19 0.60 84 1006.6
20260506130442 58 313 4.0 8.0 0.00 1.21 0.60 85 1006.6
20260506125441 58 303 2.0 6.0 0.00 1.23 0.60 84 1006.5
20260506124439 59 352 6.0 11.0 0.00 1.23 0.60 84 1006.4
20260506123436 58 13 5.0 6.0 0.00 1.23 0.60 85 1006.4
20260506122434 58 328 4.0 8.0 0.00 1.23 0.60 85 1006.4
20260506121433 60 330 6.0 9.0 0.00 1.23 0.60 79 1006.5
20260506120430 59 112 3.0 5.0 0.00 1.25 0.60 78 1006.5
20260506115448 59 103 3.0 6.0 0.00 1.26 0.60 79 1006.4
20260506114425 59 157 1.0 4.0 0.00 1.26 0.60 80 1006.4
20260506113423 58 95 5.0 8.0 0.00 1.26 0.60 79 1006.4